Overview Statistics Trail Chart Weather Telemetry Raw packets
 

This is the latest recevied weather packets stored in our database for station/object NR0A-4. If no packets are shown the sender has not sent any weather packets the latest 10 day(s).

<< 43 44 45 46 47 48 49 >>
Time Temp. Humidity Pressure Rain* Wind** Luminosity Snow
1788364204 26.67° C 65% 1011.1 hPa 0 mm - 566 W/m² -
1788363904 26.67° C 65% 1011.1 hPa 0 mm - 557 W/m² -
1788363604 26.11° C 67% 1011 hPa 0 mm - 547 W/m² -
1788363304 26.11° C 66% 1011.1 hPa 0 mm - 533 W/m² -
1788363004 26.11° C 65% 1011.1 hPa 0 mm - 522 W/m² -
1788362704 26.11° C 67% 1011 hPa 0 mm - 513 W/m² -
1788362404 25.56° C 68% 1011 hPa 0 mm - 501 W/m² -
1788362104 25.56° C 66% 1011.1 hPa 0 mm - 494 W/m² -
1788361803 25.56° C 66% 1010.9 hPa 0 mm - 482 W/m² -
1788361504 25.56° C 68% 1011 hPa 0 mm - 464 W/m² -
1788361204 25.56° C 69% 1010.9 hPa 0 mm - 455 W/m² -
1788360904 25° C 69% 1010.9 hPa 0 mm - 457 W/m² -
1788360604 24.44° C 68% 1010.9 hPa 0 mm - 441 W/m² -
1788360304 25° C 68% 1010.9 hPa 0 mm - 360 W/m² -
1788360004 25° C 67% 1010.9 hPa 0 mm - 132 W/m² -
1788359704 25° C 69% 1011 hPa 0 mm - 394 W/m² -
1788359404 24.44° C 69% 1011 hPa 0 mm - 374 W/m² -
1788359104 24.44° C 69% 1011 hPa 0 mm - 353 W/m² -
1788358804 24.44° C 69% 1011.2 hPa 0 mm - 334 W/m² -
1788358503 23.89° C 70% 1011 hPa 0 mm - 318 W/m² -
1788358204 23.89° C 73% 1011.1 hPa 0 mm - 297 W/m² -
1788357904 23.33° C 73% 1011 hPa 0 mm - 283 W/m² -
1788357603 22.78° C 75% 1011 hPa 0 mm - 255 W/m² -
1788357303 22.78° C 75% 1010.9 hPa 0 mm - 113 W/m² -
1788357004 22.22° C 76% 1011 hPa 0 mm - 90 W/m² -

* Rain latest hour (hover to see other rain measurements)
** Current wind speed in m/s (hover to see current wind gust speed)